Torna al catalogo

STARLINK-3962

AttivoComunicazioniVLEO
NORAD 52708·PAYLOAD·🇺🇸 United States

Lanciato May 18, 2022 da Cape Canaveral Space Force Station

Loading…

Prossimi Passaggi (prossime 24 ore)

TLE

AggiornatoSource: CelesTrak SupGP

Epoca: Sep 14, 2026, 21:03 UTC

1 52708C 22053BE  26257.87756944 -.00027607  00000+0 -78979-3 0  2579
2 52708  53.1595 352.1859 0001280  81.1756 276.1250 15.35415578    12

Traccia STARLINK-3962 in tempo reale con AllMySat

Download on the App Store